User: anonymous
Location: Muenchen
(48.1800°N, 11.5800°E)
Time: 01:03:18
(UTC+02:00)
Language:

Cosmos 2233 Rocket - Orbit

View from above orbital plane
View from above orbital plane
View from above satellite
View from above satellite

Ground track
Ground track

The orbit data is extracted from the following two-line orbital elements,

1 22488U 93008B   14206.40341791  .00000085  00000-0  70495-4 0  9101
2 22488 082.9453 145.5632 0024133 311.5358 168.3118 13.77634609 78618
Epoch (UTC): 25 July 2014 09:40:55
Eccentricity: 0.0024133
inclination: 82.9453°
perigee height: 954 km
apogee height: 990 km
right ascension of ascending node: 145.5632°
argument of perigee: 311.5358°
revolutions per day: 13.77634609
mean anomaly at epoch: 168.3118°
orbit number at epoch: 7861

The dashed part of the orbit path shows where the satellite is in the earth's shadow,  

DLR